La Rinconada, Spain
Current Conditions -  °F | °C
As of 3:00 PM on Friday 19 Dec 2014 (Local Time) from LEZL Reporting Station
Clear Clear  
Wind Chill: 59°   Ceiling: Unl
Heat Index: 59°   Visibility: 6mi
Dew Point: 50°   Wind: 1mph
Humidity: 72%   Direction: 260°W
Pressure: 30.39"   Gusts: NA
Location:  37.49°N, 5.98°W
Report Text: LEZL 191400Z 26001KT CAVOK 15/10 Q1029 NOSIG
Loading
Personal Weather Stations






























Interactive Weather Map New forecast layout! Learn more

10-Day Weather Forecast

Advertisements
Track Severe Weather on mobile